PTJYK SBSV-SDIH

Flight info

Callsign PTJYK
Flight time N/A
Altitude 10000
Route REA DCT 1257S03821W 1301S03828W 1300S03831W 1307S03847W 1323S03854W 1629S03904W 1643S03906W 1952S04005W 2003S04011W 2011S04011W 2231S04204W 2257S04229W 2302S04300W 2305S04328W 2314S04407W 2318S04427W 2331S04504W 2331S04550W DCT
Aircraft SR22/L-SDGRY/S

Departure

Time 2026-05-04 23:02
Airport Deputado Luiz Eduardo Magalhães International Airport (SBSV)

Arrival

Time N/A
Airport Fazenda Irohy Airport (SDIH)
Time Latitude Longitude Altitude Speed Heading
2026-05-04 22:26 -12.91518 -38.34189 39 ft 0 kts 71°
2026-05-04 22:55 -12.91518 -38.34174 39 ft 5 kts 119°
2026-05-04 22:55 -12.91543 -38.34153 39 ft 2 kts 130°
2026-05-04 22:55 -12.91546 -38.34107 39 ft 13 kts 73°
2026-05-04 22:55 -12.91487 -38.34013 39 ft 15 kts 57°
2026-05-04 22:56 -12.91453 -38.33969 39 ft 0 kts 52°
2026-05-04 22:56 -12.91452 -38.33967 40 ft 3 kts 52°
2026-05-04 22:56 -12.91398 -38.33891 41 ft 21 kts 54°
2026-05-04 22:56 -12.91334 -38.33806 39 ft 12 kts 31°
2026-05-04 22:57 -12.91237 -38.33850 39 ft 21 kts 324°
2026-05-04 22:57 -12.91096 -38.33954 39 ft 27 kts 322°
2026-05-04 22:57 -12.90937 -38.34072 39 ft 28 kts 325°
2026-05-04 22:57 -12.90824 -38.34157 39 ft 9 kts 323°
2026-05-04 22:58 -12.90793 -38.34181 39 ft 5 kts 305°
2026-05-04 22:58 -12.90790 -38.34234 39 ft 10 kts 274°
2026-05-04 22:58 -12.90789 -38.34249 39 ft 0 kts 275°
2026-05-04 22:59 -12.90787 -38.34270 40 ft 6 kts 274°
2026-05-04 22:59 -12.90799 -38.34329 43 ft 11 kts 216°
2026-05-04 22:59 -12.90843 -38.34323 43 ft 0 kts 139°
2026-05-04 23:00 -12.90844 -38.34323 43 ft 3 kts 139°
2026-05-04 23:01 -12.91055 -38.34167 43 ft 69 kts 144°
2026-05-04 23:01 -12.91530 -38.33802 147 ft 93 kts 143°
2026-05-04 23:01 -12.92069 -38.33441 419 ft 90 kts 157°
2026-05-04 23:01 -12.92724 -38.33494 540 ft 108 kts 206°
2026-05-04 23:02 -12.93420 -38.33937 676 ft 125 kts 205°
2026-05-04 23:02 -12.94201 -38.34410 841 ft 134 kts 208°
2026-05-04 23:02 -12.94987 -38.34908 1106 ft 132 kts 206°
2026-05-04 23:02 -12.95788 -38.35417 1225 ft 143 kts 207°
2026-05-04 23:03 -12.96658 -38.35976 1240 ft 151 kts 208°
2026-05-04 23:03 -12.97492 -38.36649 1231 ft 163 kts 230°
2026-05-04 23:03 -12.97803 -38.37799 1225 ft 172 kts 257°
2026-05-04 23:03 -12.98317 -38.38833 1234 ft 162 kts 220°
2026-05-04 23:04 -12.99154 -38.39608 1238 ft 164 kts 213°
2026-05-04 23:04 -13.00088 -38.40304 1239 ft 168 kts 212°
2026-05-04 23:04 -13.01018 -38.41012 1237 ft 166 kts 217°
2026-05-04 23:04 -13.01837 -38.41844 1239 ft 167 kts 219°
2026-05-04 23:05 -13.02654 -38.42696 1238 ft 169 kts 220°
2026-05-04 23:05 -13.03620 -38.43334 1239 ft 165 kts 200°
2026-05-04 23:05 -13.04599 -38.43925 1381 ft 160 kts 220°
2026-05-04 23:05 -13.05199 -38.44824 1657 ft 155 kts 241°
2026-05-04 23:06 -13.05468 -38.45929 1617 ft 172 kts 257°
2026-05-04 23:06 -13.05332 -38.47169 1762 ft 169 kts 280°
2026-05-04 23:06 -13.04924 -38.48304 1887 ft 170 kts 287°
2026-05-04 23:06 -13.04473 -38.49420 1919 ft 174 kts 287°
2026-05-04 23:07 -13.04036 -38.50581 1968 ft 176 kts 285°
2026-05-04 23:07 -13.03693 -38.51810 1925 ft 181 kts 277°
2026-05-04 23:07 -13.03699 -38.53126 1691 ft 186 kts 252°
2026-05-04 23:07 -13.04163 -38.54260 1894 ft 165 kts 234°
2026-05-04 23:08 -13.04711 -38.55335 1748 ft 176 kts 245°
2026-05-04 23:08 -13.05109 -38.56536 1630 ft 183 kts 247°
2026-05-04 23:08 -13.05522 -38.57779 1505 ft 185 kts 247°
2026-05-04 23:08 -13.05886 -38.59038 1392 ft 185 kts 249°
2026-05-04 23:09 -13.06241 -38.60314 1271 ft 186 kts 250°
2026-05-04 23:09 -13.06609 -38.61575 1247 ft 182 kts 249°
2026-05-04 23:09 -13.06964 -38.62799 1245 ft 177 kts 249°
2026-05-04 23:09 -13.07512 -38.63876 1236 ft 168 kts 219°
2026-05-04 23:10 -13.08455 -38.64514 1235 ft 166 kts 214°
2026-05-04 23:10 -13.09055 -38.65545 1231 ft 175 kts 247°
2026-05-04 23:10 -13.09390 -38.66745 1245 ft 175 kts 249°
2026-05-04 23:10 -13.09747 -38.67938 1244 ft 175 kts 248°
2026-05-04 23:11 -13.10097 -38.69136 1244 ft 175 kts 249°
2026-05-04 23:11 -13.10456 -38.70326 1248 ft 174 kts 248°
2026-05-04 23:11 -13.10728 -38.71237 1247 ft 175 kts 249°
2026-05-04 23:11 -13.11086 -38.72423 1253 ft 174 kts 248°
2026-05-04 23:12 -13.11443 -38.73615 1241 ft 175 kts 249°
2026-05-04 23:12 -13.11805 -38.74805 1242 ft 175 kts 249°
2026-05-04 23:12 -13.12170 -38.76002 1244 ft 176 kts 248°
2026-05-04 23:12 -13.12538 -38.77183 1243 ft 176 kts 248°
2026-05-04 23:13 -13.13010 -38.78327 1244 ft 173 kts 231°
2026-05-04 23:13 -13.13836 -38.79191 1245 ft 169 kts 212°
2026-05-04 23:13 -13.14868 -38.79728 1245 ft 166 kts 200°
2026-05-04 23:13 -13.15919 -38.80219 1244 ft 167 kts 201°
2026-05-04 23:14 -13.16969 -38.80717 1238 ft 167 kts 200°
2026-05-04 23:14 -13.18020 -38.81211 1237 ft 165 kts 201°
2026-05-04 23:14 -13.19044 -38.81692 1246 ft 164 kts 201°
2026-05-04 23:14 -13.20080 -38.82177 1248 ft 164 kts 199°
2026-05-04 23:15 -13.21123 -38.82665 1242 ft 165 kts 200°
2026-05-04 23:15 -13.22160 -38.83151 1242 ft 162 kts 200°
2026-05-04 23:15 -13.23184 -38.83630 1248 ft 162 kts 200°
2026-05-04 23:15 -13.24216 -38.84113 1245 ft 164 kts 201°
2026-05-04 23:16 -13.25259 -38.84603 1245 ft 164 kts 201°
2026-05-04 23:16 -13.26290 -38.85087 1249 ft 162 kts 200°
2026-05-04 23:16 -13.27299 -38.85560 1247 ft 161 kts 200°
2026-05-04 23:16 -13.28316 -38.86035 1245 ft 161 kts 201°
2026-05-04 23:17 -13.29335 -38.86513 1241 ft 162 kts 202°
2026-05-04 23:17 -13.30354 -38.86994 1241 ft 159 kts 201°
2026-05-04 23:17 -13.31360 -38.87465 1240 ft 158 kts 200°
2026-05-04 23:17 -13.32358 -38.87932 1247 ft 158 kts 202°
2026-05-04 23:18 -13.33365 -38.88405 1248 ft 160 kts 202°
2026-05-04 23:18 -13.34378 -38.88881 1247 ft 161 kts 201°
2026-05-04 23:18 -13.35392 -38.89355 1249 ft 162 kts 201°
2026-05-04 23:18 -13.36416 -38.89838 1250 ft 161 kts 201°
2026-05-04 23:19 -13.37437 -38.90316 1259 ft 161 kts 201°
2026-05-04 23:19 -13.38438 -38.90785 1382 ft 156 kts 200°
2026-05-04 23:19 -13.39457 -38.91079 1495 ft 150 kts 181°
2026-05-04 23:19 -13.40490 -38.91110 1619 ft 148 kts 180°
2026-05-04 23:20 -13.41514 -38.91175 1737 ft 147 kts 180°
2026-05-04 23:20 -13.42519 -38.91226 1865 ft 146 kts 181°
2026-05-04 23:20 -13.43548 -38.91279 1991 ft 144 kts 180°
2026-05-04 23:20 -13.44505 -38.91325 2231 ft 137 kts 181°
2026-05-04 23:21 -13.45449 -38.91373 2468 ft 135 kts 179°
2026-05-04 23:21 -13.46380 -38.91419 2705 ft 133 kts 180°
2026-05-04 23:21 -13.47303 -38.91464 2939 ft 132 kts 180°
2026-05-04 23:21 -13.48220 -38.91511 3175 ft 132 kts 181°
2026-05-04 23:22 -13.49134 -38.91555 3412 ft 132 kts 180°
2026-05-04 23:22 -13.50046 -38.91603 3647 ft 130 kts 180°
2026-05-04 23:22 -13.50948 -38.91647 3887 ft 130 kts 180°
2026-05-04 23:22 -13.51846 -38.91693 4125 ft 131 kts 180°
2026-05-04 23:23 -13.52758 -38.91739 4366 ft 132 kts 179°
2026-05-04 23:23 -13.53679 -38.91784 4609 ft 133 kts 179°
2026-05-04 23:23 -13.54606 -38.91831 4855 ft 134 kts 179°
2026-05-04 23:23 -13.55538 -38.91879 5097 ft 134 kts 179°
2026-05-04 23:24 -13.56471 -38.91925 5344 ft 134 kts 178°
2026-05-04 23:24 -13.57417 -38.91972 5502 ft 141 kts 178°
2026-05-04 23:24 -13.58443 -38.92023 5516 ft 153 kts 179°
2026-05-04 23:24 -13.59528 -38.92080 5518 ft 162 kts 180°
2026-05-04 23:25 -13.60672 -38.92141 5511 ft 166 kts 180°
2026-05-04 23:25 -13.61833 -38.92200 5509 ft 168 kts 179°
2026-05-04 23:25 -13.63005 -38.92260 5513 ft 169 kts 179°
2026-05-04 23:25 -13.64185 -38.92321 5508 ft 170 kts 179°
2026-05-04 23:26 -13.65366 -38.92377 5512 ft 170 kts 179°
2026-05-04 23:26 -13.66550 -38.92438 5510 ft 170 kts 179°
2026-05-04 23:26 -13.67733 -38.92498 5511 ft 170 kts 179°
2026-05-04 23:26 -13.68900 -38.92557 5510 ft 170 kts 179°
2026-05-04 23:27 -13.70083 -38.92617 5505 ft 170 kts 179°
2026-05-04 23:27 -13.71263 -38.92676 5506 ft 170 kts 179°
2026-05-04 23:27 -13.72445 -38.92736 5505 ft 170 kts 179°
2026-05-04 23:27 -13.73627 -38.92795 5504 ft 170 kts 180°
2026-05-04 23:28 -13.74811 -38.92855 5501 ft 170 kts 179°
2026-05-04 23:28 -13.75997 -38.92914 5505 ft 171 kts 179°
2026-05-04 23:28 -13.77187 -38.92975 5506 ft 171 kts 179°
2026-05-04 23:28 -13.78363 -38.93034 5505 ft 172 kts 180°
2026-05-04 23:29 -13.79555 -38.93094 5507 ft 171 kts 180°
2026-05-04 23:29 -13.80746 -38.93155 5508 ft 171 kts 179°
2026-05-04 23:29 -13.81927 -38.93215 5508 ft 169 kts 179°
2026-05-04 23:29 -13.83104 -38.93274 5507 ft 169 kts 180°
2026-05-04 23:30 -13.84281 -38.93333 5506 ft 170 kts 179°
2026-05-04 23:30 -13.85460 -38.93393 5505 ft 169 kts 179°
2026-05-04 23:30 -13.86623 -38.93451 5503 ft 170 kts 180°
2026-05-04 23:30 -13.87798 -38.93512 5503 ft 169 kts 180°
2026-05-04 23:31 -13.88965 -38.93569 5508 ft 168 kts 180°
2026-05-04 23:31 -13.90141 -38.93631 5504 ft 170 kts 179°
2026-05-04 23:31 -13.91322 -38.93689 5505 ft 170 kts 179°
2026-05-04 23:31 -13.92504 -38.93748 5505 ft 170 kts 179°
2026-05-04 23:32 -13.93685 -38.93808 5502 ft 170 kts 180°
2026-05-04 23:32 -13.94860 -38.93868 5506 ft 169 kts 180°
2026-05-04 23:32 -13.96030 -38.93926 5508 ft 168 kts 179°
2026-05-04 23:32 -13.97189 -38.93985 5507 ft 169 kts 179°
2026-05-04 23:33 -13.98367 -38.94045 5510 ft 170 kts 179°
2026-05-04 23:33 -13.99543 -38.94105 5510 ft 169 kts 179°
2026-05-04 23:33 -14.00716 -38.94164 5509 ft 169 kts 179°
2026-05-04 23:33 -14.01888 -38.94223 5509 ft 168 kts 179°
2026-05-04 23:34 -14.03056 -38.94283 5510 ft 168 kts 179°
2026-05-04 23:34 -14.04226 -38.94342 5510 ft 168 kts 179°
2026-05-04 23:34 -14.05397 -38.94400 5509 ft 169 kts 179°
2026-05-04 23:34 -14.06575 -38.94460 5510 ft 170 kts 179°
2026-05-04 23:35 -14.07755 -38.94520 5508 ft 170 kts 179°
2026-05-04 23:35 -14.08916 -38.94578 5511 ft 169 kts 180°
2026-05-04 23:35 -14.10090 -38.94638 5513 ft 170 kts 180°
2026-05-04 23:35 -14.11277 -38.94699 5512 ft 171 kts 179°
2026-05-04 23:36 -14.12467 -38.94760 5515 ft 171 kts 179°
2026-05-04 23:36 -14.13657 -38.94821 5513 ft 171 kts 180°
2026-05-04 23:36 -14.14845 -38.94881 5514 ft 170 kts 179°
2026-05-04 23:36 -14.16026 -38.94938 5515 ft 170 kts 179°
2026-05-04 23:37 -14.17208 -38.95001 5511 ft 170 kts 179°
2026-05-04 23:37 -14.18374 -38.95058 5512 ft 170 kts 179°
2026-05-04 23:37 -14.19555 -38.95119 5511 ft 169 kts 179°
2026-05-04 23:37 -14.20735 -38.95175 5514 ft 171 kts 180°
2026-05-04 23:38 -14.21923 -38.95238 5514 ft 172 kts 180°
2026-05-04 23:38 -14.23121 -38.95299 5515 ft 173 kts 180°
2026-05-04 23:38 -14.24320 -38.95361 5507 ft 172 kts 179°
2026-05-04 23:38 -14.25512 -38.95421 5504 ft 171 kts 180°
2026-05-04 23:39 -14.26697 -38.95480 5505 ft 170 kts 180°
2026-05-04 23:39 -14.27880 -38.95540 5506 ft 170 kts 180°
2026-05-04 23:39 -14.29062 -38.95600 5506 ft 170 kts 179°
2026-05-04 23:39 -14.30225 -38.95660 5504 ft 170 kts 179°
2026-05-04 23:40 -14.31400 -38.95721 5505 ft 168 kts 179°
2026-05-04 23:40 -14.32571 -38.95779 5502 ft 169 kts 180°
2026-05-04 23:40 -14.33744 -38.95838 5502 ft 168 kts 180°
2026-05-04 23:40 -14.34915 -38.95897 5504 ft 168 kts 180°
2026-05-04 23:41 -14.36073 -38.95957 5507 ft 165 kts 179°
2026-05-04 23:41 -14.37218 -38.96015 5504 ft 165 kts 179°
2026-05-04 23:41 -14.38366 -38.96069 5502 ft 165 kts 179°
2026-05-04 23:41 -14.39511 -38.96127 5501 ft 164 kts 180°
2026-05-04 23:42 -14.40636 -38.96187 5500 ft 164 kts 180°
2026-05-04 23:42 -14.41783 -38.96242 5498 ft 166 kts 181°
2026-05-04 23:42 -14.42940 -38.96303 5501 ft 167 kts 180°
2026-05-04 23:42 -14.44104 -38.96357 5499 ft 168 kts 180°
2026-05-04 23:43 -14.45270 -38.96422 5495 ft 168 kts 180°
2026-05-04 23:43 -14.46436 -38.96481 5497 ft 167 kts 179°
2026-05-04 23:43 -14.47591 -38.96540 5500 ft 166 kts 180°
2026-05-04 23:43 -14.48729 -38.96600 5500 ft 166 kts 180°
2026-05-04 23:44 -14.49880 -38.96658 5503 ft 165 kts 180°
2026-05-04 23:44 -14.51026 -38.96718 5502 ft 166 kts 180°
2026-05-04 23:44 -14.52184 -38.96775 5501 ft 168 kts 180°
2026-05-04 23:44 -14.53354 -38.96834 5504 ft 168 kts 180°
2026-05-04 23:45 -14.54522 -38.96894 5498 ft 168 kts 180°
2026-05-04 23:45 -14.55682 -38.96952 5498 ft 166 kts 179°
2026-05-04 23:45 -14.56831 -38.97010 5497 ft 165 kts 180°
2026-05-04 23:45 -14.57962 -38.97067 5497 ft 165 kts 180°
2026-05-04 23:46 -14.59111 -38.97125 5501 ft 166 kts 180°
2026-05-04 23:46 -14.60262 -38.97185 5501 ft 166 kts 180°
2026-05-04 23:46 -14.61415 -38.97243 5501 ft 166 kts 180°
2026-05-04 23:46 -14.62569 -38.97303 5502 ft 166 kts 180°
2026-05-04 23:47 -14.63724 -38.97360 5497 ft 167 kts 180°
2026-05-04 23:47 -14.64891 -38.97420 5495 ft 169 kts 180°
2026-05-04 23:47 -14.66063 -38.97479 5500 ft 169 kts 180°
2026-05-04 23:47 -14.67235 -38.97537 5502 ft 169 kts 180°
2026-05-04 23:48 -14.68398 -38.97598 5502 ft 170 kts 180°
2026-05-04 23:48 -14.69581 -38.97661 5500 ft 170 kts 180°
2026-05-04 23:48 -14.70757 -38.97720 5500 ft 169 kts 180°
2026-05-04 23:48 -14.71932 -38.97778 5499 ft 169 kts 180°
2026-05-04 23:49 -14.73103 -38.97839 5505 ft 168 kts 179°
2026-05-04 23:49 -14.74272 -38.97898 5505 ft 168 kts 180°
2026-05-04 23:49 -14.75445 -38.97958 5502 ft 169 kts 180°
2026-05-04 23:49 -14.76621 -38.98018 5500 ft 169 kts 180°
2026-05-04 23:50 -14.77792 -38.98076 5503 ft 168 kts 180°
2026-05-04 23:50 -14.78945 -38.98135 5502 ft 168 kts 179°
2026-05-04 23:50 -14.80130 -38.98196 5502 ft 169 kts 180°
2026-05-04 23:50 -14.81286 -38.98255 5501 ft 169 kts 180°
2026-05-04 23:51 -14.82463 -38.98315 5498 ft 170 kts 180°
2026-05-04 23:51 -14.83638 -38.98375 5503 ft 169 kts 180°
2026-05-04 23:51 -14.84819 -38.98437 5502 ft 170 kts 180°
2026-05-04 23:51 -14.86004 -38.98496 5503 ft 171 kts 180°
2026-05-04 23:52 -14.87191 -38.98558 5502 ft 171 kts 180°
2026-05-04 23:52 -14.88373 -38.98617 5502 ft 170 kts 180°
2026-05-04 23:52 -14.89548 -38.98678 5502 ft 168 kts 180°
2026-05-04 23:52 -14.90698 -38.98736 5504 ft 167 kts 180°
2026-05-04 23:53 -14.91865 -38.98796 5503 ft 168 kts 179°
2026-05-04 23:53 -14.93033 -38.98856 5502 ft 169 kts 180°
2026-05-04 23:53 -14.94207 -38.98915 5501 ft 169 kts 180°
2026-05-04 23:53 -14.95372 -38.98977 5504 ft 167 kts 180°
2026-05-04 23:54 -14.96528 -38.99035 5503 ft 166 kts 180°
2026-05-04 23:54 -14.97682 -38.99092 5502 ft 167 kts 179°
2026-05-04 23:54 -14.98844 -38.99153 5502 ft 167 kts 179°
2026-05-04 23:54 -14.99985 -38.99211 5502 ft 166 kts 180°
2026-05-04 23:55 -15.01142 -38.99270 5501 ft 167 kts 180°
2026-05-04 23:55 -15.02300 -38.99328 5500 ft 167 kts 180°
2026-05-04 23:55 -15.04625 -38.99447 5501 ft 168 kts 180°
2026-05-04 23:56 -15.05794 -38.99508 5501 ft 168 kts 180°
2026-05-04 23:56 -15.06962 -38.99568 5504 ft 167 kts 180°
2026-05-04 23:56 -15.08121 -38.99626 5503 ft 167 kts 180°
2026-05-04 23:56 -15.09282 -38.99684 5507 ft 167 kts 180°
2026-05-04 23:57 -15.10444 -38.99744 5503 ft 168 kts 180°
2026-05-04 23:57 -15.11595 -38.99804 5503 ft 168 kts 180°
2026-05-04 23:57 -15.12763 -38.99867 5501 ft 168 kts 180°
2026-05-04 23:57 -15.13927 -38.99924 5500 ft 167 kts 180°
2026-05-04 23:58 -15.15090 -38.99982 5506 ft 168 kts 180°
2026-05-04 23:58 -15.16258 -39.00042 5508 ft 168 kts 180°
2026-05-04 23:58 -15.17427 -39.00102 5507 ft 169 kts 180°
2026-05-04 23:58 -15.18606 -39.00161 5505 ft 170 kts 180°
2026-05-04 23:59 -15.19793 -39.00223 5504 ft 171 kts 180°
2026-05-04 23:59 -15.20972 -39.00285 5505 ft 169 kts 180°
2026-05-04 23:59 -15.22127 -39.00345 5505 ft 168 kts 180°
2026-05-04 23:59 -15.23295 -39.00402 5505 ft 168 kts 180°
2026-05-05 00:00 -15.24465 -39.00464 5507 ft 168 kts 180°
2026-05-05 00:00 -15.24859 -39.00485 5507 ft 168 kts 180°
2026-05-05 00:00 -15.26411 -39.00563 5506 ft 169 kts 180°
2026-05-05 00:00 -15.27584 -39.00622 5505 ft 169 kts 180°
2026-05-05 00:01 -15.28756 -39.00683 5506 ft 168 kts 181°
2026-05-05 00:01 -15.29924 -39.00742 5506 ft 168 kts 180°
2026-05-05 00:01 -15.31088 -39.00803 5506 ft 167 kts 180°
2026-05-05 00:01 -15.32254 -39.00861 5506 ft 168 kts 180°
2026-05-05 00:02 -15.33793 -39.00941 5506 ft 167 kts 180°
2026-05-05 00:02 -15.34952 -39.01000 5505 ft 167 kts 181°
2026-05-05 00:02 -15.35734 -39.01040 5503 ft 167 kts 180°
2026-05-05 00:02 -15.36882 -39.01099 5505 ft 167 kts 180°
2026-05-05 00:03 -15.38047 -39.01159 5504 ft 168 kts 180°
2026-05-05 00:03 -15.39218 -39.01218 5503 ft 169 kts 180°
2026-05-05 00:03 -15.40392 -39.01279 5503 ft 169 kts 180°
2026-05-05 00:03 -15.41567 -39.01339 5505 ft 169 kts 180°
2026-05-05 00:04 -15.42737 -39.01400 5508 ft 168 kts 179°
2026-05-05 00:04 -15.43903 -39.01459 5506 ft 167 kts 179°
2026-05-05 00:04 -15.45065 -39.01518 5508 ft 167 kts 179°
2026-05-05 00:04 -15.46216 -39.01578 5506 ft 168 kts 180°
2026-05-05 00:05 -15.47389 -39.01638 5506 ft 169 kts 180°
2026-05-05 00:05 -15.48565 -39.01698 5503 ft 170 kts 180°
2026-05-05 00:05 -15.50134 -39.01779 5504 ft 168 kts 180°
2026-05-05 00:05 -15.50908 -39.01819 5499 ft 168 kts 180°
2026-05-05 00:06 -15.52072 -39.01880 5508 ft 168 kts 180°
2026-05-05 00:06 -15.53622 -39.01958 5508 ft 169 kts 180°
2026-05-05 00:06 -15.54416 -39.01999 5509 ft 169 kts 180°
2026-05-05 00:06 -15.55589 -39.02059 5510 ft 169 kts 180°
2026-05-05 00:07 -15.56761 -39.02119 5510 ft 169 kts 180°
2026-05-05 00:07 -15.57918 -39.02180 5510 ft 169 kts 180°
2026-05-05 00:07 -15.59093 -39.02239 5510 ft 169 kts 180°
2026-05-05 00:07 -15.60270 -39.02300 5509 ft 170 kts 180°
2026-05-05 00:08 -15.61448 -39.02360 5512 ft 170 kts 180°
2026-05-05 00:08 -15.62630 -39.02420 5510 ft 170 kts 179°
2026-05-05 00:08 -15.63808 -39.02482 5510 ft 169 kts 179°
2026-05-05 00:08 -15.64977 -39.02542 5511 ft 168 kts 180°
2026-05-05 00:09 -15.66143 -39.02603 5511 ft 167 kts 179°
2026-05-05 00:09 -15.67288 -39.02661 5512 ft 167 kts 179°
2026-05-05 00:09 -15.68449 -39.02720 5511 ft 167 kts 179°
2026-05-05 00:09 -15.69609 -39.02780 5511 ft 167 kts 179°
2026-05-05 00:10 -15.70768 -39.02840 5508 ft 167 kts 179°
2026-05-05 00:10 -15.71931 -39.02899 5507 ft 167 kts 179°
2026-05-05 00:10 -15.73090 -39.02959 5508 ft 166 kts 179°
2026-05-05 00:10 -15.74245 -39.03019 5509 ft 166 kts 179°
2026-05-05 00:11 -15.75400 -39.03077 5511 ft 166 kts 179°
2026-05-05 00:11 -15.76553 -39.03137 5510 ft 166 kts 179°
2026-05-05 00:11 -15.77694 -39.03196 5508 ft 166 kts 179°
2026-05-05 00:11 -15.78849 -39.03255 5509 ft 166 kts 179°
2026-05-05 00:12 -15.80003 -39.03315 5508 ft 166 kts 179°
2026-05-05 00:12 -15.81156 -39.03374 5508 ft 166 kts 179°
2026-05-05 00:12 -15.82307 -39.03433 5510 ft 166 kts 179°
2026-05-05 00:12 -15.83459 -39.03493 5508 ft 166 kts 179°
2026-05-05 00:13 -15.84605 -39.03552 5509 ft 165 kts 179°
2026-05-05 00:13 -15.85753 -39.03610 5510 ft 165 kts 179°
2026-05-05 00:13 -15.86902 -39.03670 5512 ft 166 kts 180°
2026-05-05 00:13 -15.88041 -39.03729 5512 ft 166 kts 180°
2026-05-05 00:14 -15.89197 -39.03789 5510 ft 166 kts 179°
2026-05-05 00:14 -15.90348 -39.03848 5511 ft 166 kts 179°
2026-05-05 00:14 -15.91498 -39.03907 5512 ft 165 kts 179°
2026-05-05 00:14 -15.92647 -39.03967 5511 ft 165 kts 179°
2026-05-05 00:15 -15.93796 -39.04026 5513 ft 165 kts 179°
2026-05-05 00:15 -15.94944 -39.04085 5512 ft 165 kts 179°
2026-05-05 00:15 -15.96072 -39.04144 5514 ft 164 kts 179°
2026-05-05 00:15 -15.97213 -39.04202 5513 ft 164 kts 179°
2026-05-05 00:16 -15.98352 -39.04261 5515 ft 165 kts 179°
2026-05-05 00:16 -15.99499 -39.04319 5515 ft 166 kts 179°
2026-05-05 00:16 -16.00651 -39.04380 5514 ft 166 kts 179°
2026-05-05 00:16 -16.01806 -39.04439 5514 ft 166 kts 179°
2026-05-05 00:17 -16.02961 -39.04499 5514 ft 165 kts 179°
2026-05-05 00:17 -16.04105 -39.04558 5516 ft 165 kts 179°
2026-05-05 00:17 -16.05251 -39.04617 5516 ft 165 kts 179°
2026-05-05 00:17 -16.06397 -39.04676 5515 ft 165 kts 179°
2026-05-05 00:18 -16.07542 -39.04734 5512 ft 165 kts 179°
2026-05-05 00:18 -16.08692 -39.04795 5505 ft 166 kts 179°
2026-05-05 00:18 -16.09826 -39.04853 5504 ft 165 kts 179°
2026-05-05 00:18 -16.10969 -39.04913 5505 ft 165 kts 179°
2026-05-05 00:19 -16.12116 -39.04971 5503 ft 165 kts 178°
2026-05-05 00:19 -16.13256 -39.05030 5505 ft 164 kts 179°
2026-05-05 00:19 -16.14395 -39.05089 5503 ft 164 kts 179°
2026-05-05 00:19 -16.15532 -39.05148 5504 ft 164 kts 179°
2026-05-05 00:20 -16.16673 -39.05206 5500 ft 164 kts 179°
2026-05-05 00:20 -16.17813 -39.05265 5501 ft 164 kts 179°
2026-05-05 00:20 -16.18950 -39.05324 5502 ft 164 kts 179°
2026-05-05 00:20 -16.20088 -39.05388 5506 ft 163 kts 180°
2026-05-05 00:21 -16.21221 -39.05445 5506 ft 164 kts 179°
2026-05-05 00:21 -16.22352 -39.05500 5507 ft 166 kts 179°
2026-05-05 00:21 -16.23506 -39.05556 5505 ft 166 kts 179°
2026-05-05 00:21 -16.24662 -39.05620 5505 ft 167 kts 179°
2026-05-05 00:22 -16.25819 -39.05680 5507 ft 167 kts 179°
2026-05-05 00:22 -16.26979 -39.05741 5507 ft 167 kts 179°
2026-05-05 00:22 -16.28136 -39.05800 5505 ft 166 kts 179°
2026-05-05 00:22 -16.29287 -39.05859 5506 ft 165 kts 179°
2026-05-05 00:23 -16.30434 -39.05919 5505 ft 165 kts 179°
2026-05-05 00:23 -16.31579 -39.05978 5503 ft 165 kts 180°
2026-05-05 00:23 -16.32708 -39.06036 5504 ft 165 kts 179°
2026-05-05 00:23 -16.33854 -39.06096 5505 ft 165 kts 179°
2026-05-05 00:24 -16.35000 -39.06155 5505 ft 165 kts 179°
2026-05-05 00:24 -16.36146 -39.06214 5504 ft 165 kts 179°
2026-05-05 00:24 -16.37287 -39.06274 5505 ft 164 kts 179°
2026-05-05 00:24 -16.38428 -39.06333 5505 ft 164 kts 179°
2026-05-05 00:25 -16.39566 -39.06392 5503 ft 163 kts 179°
2026-05-05 00:25 -16.40700 -39.06450 5501 ft 163 kts 179°
2026-05-05 00:25 -16.41836 -39.06508 5501 ft 163 kts 179°
2026-05-05 00:25 -16.42972 -39.06567 5501 ft 164 kts 179°
2026-05-05 00:26 -16.44110 -39.06626 5509 ft 163 kts 179°
2026-05-05 00:26 -16.45214 -39.06685 5547 ft 161 kts 178°
2026-05-05 00:26 -16.46331 -39.06742 5546 ft 160 kts 178°
2026-05-05 00:26 -16.47405 -39.06800 5772 ft 149 kts 177°
2026-05-05 00:27 -16.48416 -39.06851 6010 ft 143 kts 178°
2026-05-05 00:27 -16.49394 -39.06933 6245 ft 141 kts 184°
2026-05-05 00:27 -16.50348 -39.07126 6486 ft 138 kts 184°
2026-05-05 00:27 -16.51291 -39.07302 6714 ft 137 kts 183°
2026-05-05 00:28 -16.52227 -39.07479 6939 ft 136 kts 183°
2026-05-05 00:28 -16.53157 -39.07656 7170 ft 136 kts 182°
2026-05-05 00:28 -16.54087 -39.07833 7404 ft 136 kts 182°
2026-05-05 00:28 -16.55025 -39.08010 7504 ft 145 kts 182°
2026-05-05 00:29 -16.56052 -39.08206 7513 ft 155 kts 184°
2026-05-05 00:29 -16.57138 -39.08417 7518 ft 163 kts 186°
2026-05-05 00:29 -16.58273 -39.08638 7518 ft 168 kts 185°
2026-05-05 00:29 -16.59424 -39.08840 7517 ft 169 kts 185°
2026-05-05 00:30 -16.60592 -39.09074 7520 ft 170 kts 184°
2026-05-05 00:30 -16.61755 -39.09297 7517 ft 170 kts 184°
2026-05-05 00:30 -16.62920 -39.09510 7518 ft 170 kts 184°
2026-05-05 00:30 -16.64088 -39.09743 7514 ft 172 kts 186°
2026-05-05 00:31 -16.65267 -39.09969 7516 ft 172 kts 184°
2026-05-05 00:31 -16.66445 -39.10200 7512 ft 173 kts 186°
2026-05-05 00:31 -16.67632 -39.10426 7515 ft 174 kts 186°
2026-05-05 00:31 -16.68818 -39.10648 7515 ft 178 kts 186°
2026-05-05 00:32 -16.70053 -39.10887 7515 ft 178 kts 186°
2026-05-05 00:32 -16.71258 -39.11117 7513 ft 179 kts 186°
2026-05-05 00:32 -16.72478 -39.11351 7511 ft 178 kts 185°
2026-05-05 00:32 -16.73675 -39.11673 7489 ft 178 kts 191°
2026-05-05 00:33 -16.74868 -39.12042 7404 ft 179 kts 188°
2026-05-05 00:33 -16.76063 -39.12398 7240 ft 180 kts 192°
2026-05-05 00:33 -16.77271 -39.12768 7052 ft 182 kts 191°
2026-05-05 00:33 -16.78487 -39.13135 6867 ft 182 kts 191°
2026-05-05 00:34 -16.79703 -39.13503 6676 ft 181 kts 191°
2026-05-05 00:34 -16.80911 -39.13870 6525 ft 179 kts 191°
2026-05-05 00:34 -16.82077 -39.14221 6518 ft 170 kts 191°
2026-05-05 00:34 -16.83164 -39.14553 6507 ft 156 kts 191°
2026-05-05 00:35 -16.84159 -39.14857 6504 ft 143 kts 190°
2026-05-05 00:35 -16.85092 -39.15134 6503 ft 140 kts 190°
2026-05-05 00:35 -16.86033 -39.15414 6505 ft 142 kts 189°
2026-05-05 00:35 -16.87004 -39.15702 6513 ft 148 kts 190°
2026-05-05 00:36 -16.88005 -39.16007 6513 ft 151 kts 190°
2026-05-05 00:36 -16.89022 -39.16316 6522 ft 154 kts 191°
2026-05-05 00:36 -16.90052 -39.16629 6522 ft 154 kts 191°
2026-05-05 00:36 -16.91087 -39.16944 6522 ft 155 kts 191°
2026-05-05 00:37 -16.92128 -39.17260 6521 ft 156 kts 190°
2026-05-05 00:37 -16.93173 -39.17577 6522 ft 157 kts 190°
2026-05-05 00:37 -16.94219 -39.17894 6527 ft 157 kts 191°
2026-05-05 00:37 -16.95255 -39.18209 6522 ft 157 kts 191°
2026-05-05 00:38 -16.96314 -39.18529 6512 ft 160 kts 191°
2026-05-05 00:38 -16.97384 -39.18853 6518 ft 160 kts 191°
2026-05-05 00:38 -16.98453 -39.19177 6512 ft 160 kts 191°
2026-05-05 00:38 -16.99522 -39.19501 6512 ft 160 kts 191°
2026-05-05 00:39 -17.00594 -39.19826 6514 ft 161 kts 191°
2026-05-05 00:39 -17.01669 -39.20152 6516 ft 161 kts 191°
2026-05-05 00:39 -17.02744 -39.20478 6517 ft 161 kts 191°
2026-05-05 00:39 -17.03816 -39.20804 6517 ft 160 kts 191°
2026-05-05 00:40 -17.04873 -39.21126 6518 ft 161 kts 191°
2026-05-05 00:40 -17.05952 -39.21452 6518 ft 161 kts 191°
2026-05-05 00:40 -17.07032 -39.21780 6519 ft 162 kts 191°
2026-05-05 00:40 -17.08114 -39.22109 6524 ft 162 kts 191°
2026-05-05 00:41 -17.09198 -39.22438 6521 ft 162 kts 191°
2026-05-05 00:41 -17.10282 -39.22767 6519 ft 162 kts 191°
2026-05-05 00:41 -17.11364 -39.23096 6521 ft 162 kts 191°
2026-05-05 00:41 -17.12431 -39.23419 6521 ft 162 kts 191°
2026-05-05 00:42 -17.13523 -39.23752 6520 ft 161 kts 191°
2026-05-05 00:42 -17.14584 -39.24073 6521 ft 161 kts 191°
2026-05-05 00:42 -17.15661 -39.24400 6518 ft 161 kts 191°
2026-05-05 00:42 -17.16739 -39.24728 6517 ft 161 kts 191°
2026-05-05 00:43 -17.17815 -39.25054 6519 ft 161 kts 191°
2026-05-05 00:43 -17.18887 -39.25381 6517 ft 161 kts 191°
2026-05-05 00:43 -17.19958 -39.25707 6519 ft 160 kts 191°
2026-05-05 00:43 -17.21027 -39.26030 6520 ft 160 kts 191°
2026-05-05 00:44 -17.22096 -39.26357 6524 ft 160 kts 190°
2026-05-05 00:44 -17.23150 -39.26677 6521 ft 160 kts 189°
2026-05-05 00:44 -17.24204 -39.27000 6518 ft 156 kts 189°
2026-05-05 00:44 -17.25235 -39.27314 6515 ft 153 kts 189°
2026-05-05 00:45 -17.26257 -39.27622 6515 ft 153 kts 189°
2026-05-05 00:45 -17.27279 -39.27932 6512 ft 153 kts 190°
2026-05-05 00:45 -17.28299 -39.28242 6514 ft 152 kts 189°
2026-05-05 00:45 -17.29315 -39.28552 6512 ft 152 kts 190°
2026-05-05 00:46 -17.30327 -39.28858 6513 ft 152 kts 190°
2026-05-05 00:46 -17.31333 -39.29165 6512 ft 152 kts 190°
2026-05-05 00:46 -17.32347 -39.29474 6513 ft 152 kts 190°
2026-05-05 00:46 -17.33358 -39.29782 6515 ft 151 kts 189°
2026-05-05 00:47 -17.34366 -39.30087 6511 ft 151 kts 190°
2026-05-05 00:47 -17.35376 -39.30395 6516 ft 151 kts 190°
2026-05-05 00:47 -17.36387 -39.30703 6522 ft 151 kts 190°
2026-05-05 00:47 -17.37401 -39.31011 6522 ft 152 kts 189°
2026-05-05 00:48 -17.38421 -39.31320 6524 ft 154 kts 190°
2026-05-05 00:48 -17.39447 -39.31633 6523 ft 157 kts 189°
2026-05-05 00:48 -17.40505 -39.31956 6528 ft 161 kts 190°
2026-05-05 00:48 -17.41584 -39.32286 6534 ft 161 kts 190°
2026-05-05 00:49 -17.42656 -39.32615 6533 ft 159 kts 190°
2026-05-05 00:49 -17.43714 -39.32936 6533 ft 158 kts 189°
2026-05-05 00:49 -17.44767 -39.33256 6533 ft 158 kts 189°
2026-05-05 00:49 -17.45821 -39.33578 6529 ft 158 kts 189°
2026-05-05 00:50 -17.46870 -39.33899 6528 ft 156 kts 189°
2026-05-05 00:50 -17.47910 -39.34217 6527 ft 156 kts 189°
2026-05-05 00:50 -17.48955 -39.34533 6530 ft 157 kts 189°
2026-05-05 00:50 -17.49992 -39.34849 6529 ft 157 kts 189°
2026-05-05 00:51 -17.51042 -39.35170 6527 ft 157 kts 189°
2026-05-05 00:51 -17.52093 -39.35488 6523 ft 158 kts 191°
2026-05-05 00:51 -17.53148 -39.35811 6527 ft 158 kts 191°
2026-05-05 00:51 -17.54204 -39.36133 6521 ft 158 kts 191°
2026-05-05 00:52 -17.55260 -39.36458 6512 ft 159 kts 190°
2026-05-05 00:52 -17.56325 -39.36781 6505 ft 159 kts 191°
2026-05-05 00:52 -17.57386 -39.37105 6506 ft 158 kts 191°
2026-05-05 00:52 -17.58427 -39.37424 6505 ft 158 kts 191°
2026-05-05 00:53 -17.59484 -39.37745 6504 ft 158 kts 191°
2026-05-05 00:53 -17.60539 -39.38067 6504 ft 158 kts 191°
2026-05-05 00:53 -17.61597 -39.38392 6504 ft 158 kts 191°
2026-05-05 00:53 -17.62651 -39.38713 6504 ft 158 kts 191°
2026-05-05 00:54 -17.63706 -39.39034 6507 ft 158 kts 191°
2026-05-05 00:54 -17.64763 -39.39359 6507 ft 159 kts 191°
2026-05-05 00:54 -17.65823 -39.39681 6508 ft 159 kts 190°
2026-05-05 00:54 -17.66871 -39.40002 6507 ft 160 kts 191°
2026-05-05 00:55 -17.67934 -39.40327 6506 ft 159 kts 191°
2026-05-05 00:55 -17.68992 -39.40650 6507 ft 158 kts 190°
2026-05-05 00:55 -17.70051 -39.40973 6506 ft 158 kts 191°
2026-05-05 00:55 -17.71106 -39.41296 6508 ft 158 kts 191°
2026-05-05 00:56 -17.72156 -39.41616 6505 ft 157 kts 191°
2026-05-05 00:56 -17.73202 -39.41937 6508 ft 157 kts 191°
2026-05-05 00:56 -17.74252 -39.42258 6508 ft 158 kts 191°
2026-05-05 00:56 -17.75289 -39.42575 6506 ft 157 kts 191°
2026-05-05 00:57 -17.76338 -39.42897 6506 ft 157 kts 191°
2026-05-05 00:57 -17.77383 -39.43216 6504 ft 156 kts 191°
2026-05-05 00:57 -17.78428 -39.43534 6505 ft 157 kts 191°
2026-05-05 00:57 -17.79480 -39.43854 6504 ft 158 kts 191°
2026-05-05 00:58 -17.80531 -39.44178 6507 ft 157 kts 191°
2026-05-05 00:58 -17.81588 -39.44503 6507 ft 158 kts 191°
2026-05-05 00:58 -17.82643 -39.44827 6507 ft 158 kts 190°
2026-05-05 00:58 -17.83695 -39.45147 6508 ft 157 kts 191°
2026-05-05 00:59 -17.84730 -39.45464 6509 ft 157 kts 191°
2026-05-05 00:59 -17.85778 -39.45785 6508 ft 157 kts 191°
2026-05-05 00:59 -17.86827 -39.46106 6507 ft 157 kts 191°
2026-05-05 00:59 -17.87874 -39.46427 6507 ft 157 kts 191°
2026-05-05 01:00 -17.88924 -39.46748 6505 ft 157 kts 191°
2026-05-05 01:00 -17.89976 -39.47071 6505 ft 158 kts 191°
2026-05-05 01:00 -17.91030 -39.47394 6505 ft 158 kts 191°
2026-05-05 01:00 -17.92081 -39.47716 6506 ft 157 kts 191°
2026-05-05 01:01 -17.93130 -39.48037 6507 ft 157 kts 191°
2026-05-05 01:01 -17.94165 -39.48355 6506 ft 157 kts 191°
2026-05-05 01:01 -17.95217 -39.48676 6505 ft 158 kts 191°
2026-05-05 01:01 -17.96271 -39.49001 6511 ft 158 kts 191°
2026-05-05 01:02 -17.97323 -39.49324 6512 ft 158 kts 191°
2026-05-05 01:02 -17.98378 -39.49647 6510 ft 158 kts 191°
2026-05-05 01:02 -17.99430 -39.49970 6511 ft 157 kts 190°
2026-05-05 01:02 -18.00482 -39.50292 6509 ft 158 kts 190°
2026-05-05 01:03 -18.01535 -39.50616 6511 ft 158 kts 191°
2026-05-05 01:03 -18.02588 -39.50939 6511 ft 157 kts 188°
2026-05-05 01:03 -18.03614 -39.51253 6509 ft 155 kts 189°
2026-05-05 01:03 -18.04652 -39.51571 6510 ft 155 kts 188°
2026-05-05 01:04 -18.05684 -39.51888 6509 ft 154 kts 192°
2026-05-05 01:04 -18.07756 -39.52526 6508 ft 155 kts 191°
2026-05-05 01:04 -18.08793 -39.52844 6508 ft 155 kts 189°
2026-05-05 01:05 -18.09830 -39.53161 6508 ft 155 kts 191°
2026-05-05 01:05 -18.10871 -39.53481 6507 ft 156 kts 191°
2026-05-05 01:05 -18.11896 -39.53796 6511 ft 155 kts 188°
2026-05-05 01:05 -18.12932 -39.54114 6512 ft 156 kts 188°
2026-05-05 01:06 -18.13981 -39.54434 6516 ft 158 kts 188°
2026-05-05 01:06 -18.15038 -39.54759 6518 ft 159 kts 188°
2026-05-05 01:06 -18.16101 -39.55087 6519 ft 160 kts 188°
2026-05-05 01:06 -18.17168 -39.55415 6522 ft 160 kts 188°
2026-05-05 01:07 -18.18236 -39.55743 6518 ft 160 kts 191°
2026-05-05 01:07 -18.19311 -39.56070 6518 ft 163 kts 189°
2026-05-05 01:07 -18.20404 -39.56403 6519 ft 164 kts 189°
2026-05-05 01:07 -18.21489 -39.56745 6516 ft 166 kts 190°
2026-05-05 01:08 -18.22611 -39.57083 6519 ft 169 kts 190°
2026-05-05 01:08 -18.23745 -39.57438 6523 ft 170 kts 188°
2026-05-05 01:08 -18.24883 -39.57789 6524 ft 170 kts 188°
2026-05-05 01:08 -18.26021 -39.58138 6524 ft 171 kts 190°
2026-05-05 01:09 -18.27170 -39.58492 6521 ft 173 kts 190°
2026-05-05 01:09 -18.28326 -39.58847 6520 ft 173 kts 191°
2026-05-05 01:09 -18.29482 -39.59203 6522 ft 173 kts 191°
2026-05-05 01:09 -18.30639 -39.59559 6522 ft 174 kts 191°
2026-05-05 01:10 -18.31786 -39.59912 6522 ft 174 kts 191°
2026-05-05 01:10 -18.32950 -39.60271 6522 ft 174 kts 191°
2026-05-05 01:10 -18.34110 -39.60629 6522 ft 173 kts 190°
2026-05-05 01:10 -18.35268 -39.60985 6521 ft 173 kts 191°
2026-05-05 01:11 -18.36426 -39.61341 6521 ft 174 kts 191°
2026-05-05 01:11 -18.37588 -39.61699 6521 ft 174 kts 191°
2026-05-05 01:11 -18.38751 -39.62057 6520 ft 174 kts 191°
2026-05-05 01:11 -18.39909 -39.62415 6521 ft 174 kts 191°
2026-05-05 01:12 -18.41070 -39.62772 6523 ft 174 kts 191°
2026-05-05 01:12 -18.42218 -39.63127 6523 ft 174 kts 191°
2026-05-05 01:12 -18.43380 -39.63484 6522 ft 174 kts 190°
2026-05-05 01:12 -18.44541 -39.63842 6522 ft 174 kts 191°
2026-05-05 01:13 -18.45704 -39.64201 6519 ft 174 kts 191°
2026-05-05 01:13 -18.46870 -39.64560 6522 ft 175 kts 192°
2026-05-05 01:13 -18.48040 -39.64922 6519 ft 176 kts 191°
2026-05-05 01:13 -18.49215 -39.65284 6523 ft 176 kts 192°
2026-05-05 01:14 -18.50376 -39.65643 6527 ft 176 kts 191°
2026-05-05 01:14 -18.51550 -39.66005 6527 ft 176 kts 191°
2026-05-05 01:14 -18.52724 -39.66367 6523 ft 176 kts 191°
2026-05-05 01:14 -18.53901 -39.66730 6524 ft 177 kts 191°
2026-05-05 01:15 -18.55082 -39.67095 6526 ft 177 kts 191°
2026-05-05 01:15 -18.56263 -39.67460 6525 ft 177 kts 191°
2026-05-05 01:15 -18.57442 -39.67824 6525 ft 177 kts 192°
2026-05-05 01:15 -18.58617 -39.68188 6524 ft 176 kts 191°
2026-05-05 01:16 -18.59793 -39.68550 6525 ft 176 kts 191°
2026-05-05 01:16 -18.60950 -39.68907 6525 ft 176 kts 191°
2026-05-05 01:16 -18.62123 -39.69271 6523 ft 175 kts 191°
2026-05-05 01:16 -18.63295 -39.69632 6523 ft 176 kts 191°
2026-05-05 01:17 -18.64469 -39.69995 6524 ft 176 kts 191°
2026-05-05 01:17 -18.65641 -39.70358 6523 ft 176 kts 191°
2026-05-05 01:17 -18.66813 -39.70721 6524 ft 176 kts 191°
2026-05-05 01:17 -18.67983 -39.71082 6525 ft 175 kts 191°
2026-05-05 01:18 -18.69151 -39.71444 6526 ft 175 kts 191°
2026-05-05 01:18 -18.70302 -39.71799 6522 ft 175 kts 191°
2026-05-05 01:18 -18.71472 -39.72161 6519 ft 176 kts 192°
2026-05-05 01:18 -18.72647 -39.72526 6521 ft 176 kts 190°
2026-05-05 01:19 -18.73820 -39.72888 6521 ft 176 kts 190°
2026-05-05 01:19 -18.74996 -39.73251 6519 ft 177 kts 192°
2026-05-05 01:19 -18.76177 -39.73617 6519 ft 177 kts 192°
2026-05-05 01:19 -18.77339 -39.73982 6519 ft 172 kts 190°
2026-05-05 01:20 -18.78474 -39.74334 6517 ft 169 kts 189°
2026-05-05 01:20 -18.79595 -39.74679 6515 ft 167 kts 192°
2026-05-05 01:20 -18.80700 -39.75021 6517 ft 168 kts 191°
2026-05-05 01:20 -18.81814 -39.75368 6514 ft 166 kts 191°
2026-05-05 01:21 -18.82920 -39.75708 6514 ft 166 kts 191°
2026-05-05 01:21 -18.84029 -39.76050 6521 ft 166 kts 192°
2026-05-05 01:21 -18.85141 -39.76394 6522 ft 167 kts 191°
2026-05-05 01:21 -18.86254 -39.76740 6521 ft 167 kts 192°
2026-05-05 01:22 -18.87367 -39.77084 6520 ft 167 kts 192°
2026-05-05 01:22 -18.88459 -39.77423 6522 ft 165 kts 190°
2026-05-05 01:22 -18.89560 -39.77765 6522 ft 165 kts 191°
2026-05-05 01:22 -18.90661 -39.78108 6525 ft 165 kts 189°
2026-05-05 01:23 -18.91763 -39.78446 6521 ft 165 kts 191°
2026-05-05 01:23 -18.92869 -39.78787 6522 ft 167 kts 192°
2026-05-05 01:23 -18.93990 -39.79139 6505 ft 167 kts 189°
2026-05-05 01:23 -18.95103 -39.79479 6509 ft 167 kts 192°
2026-05-05 01:24 -18.96219 -39.79828 6506 ft 166 kts 190°
2026-05-05 01:24 -18.97328 -39.80173 6508 ft 166 kts 191°
2026-05-05 01:24 -18.98416 -39.80513 6507 ft 165 kts 191°
2026-05-05 01:24 -18.99519 -39.80858 6504 ft 165 kts 194°
2026-05-05 01:25 -19.00625 -39.81199 6504 ft 166 kts 194°
2026-05-05 01:25 -19.01731 -39.81541 6507 ft 166 kts 194°
2026-05-05 01:25 -19.02842 -39.81886 6507 ft 167 kts 194°
2026-05-05 01:25 -19.03954 -39.82232 6505 ft 167 kts 194°
2026-05-05 01:26 -19.05067 -39.82576 6504 ft 166 kts 194°
2026-05-05 01:26 -19.06176 -39.82923 6505 ft 166 kts 194°
2026-05-05 01:26 -19.07285 -39.83268 6506 ft 166 kts 194°
2026-05-05 01:26 -19.08380 -39.83608 6507 ft 166 kts 194°
2026-05-05 01:27 -19.09491 -39.83952 6506 ft 168 kts 194°
2026-05-05 01:27 -19.10625 -39.84303 6509 ft 171 kts 194°
2026-05-05 01:27 -19.11771 -39.84660 6510 ft 172 kts 194°
2026-05-05 01:27 -19.12920 -39.85017 6515 ft 172 kts 194°
2026-05-05 01:28 -19.14076 -39.85378 6514 ft 175 kts 194°
2026-05-05 01:28 -19.15241 -39.85741 6512 ft 174 kts 194°
2026-05-05 01:28 -19.16401 -39.86101 6515 ft 174 kts 194°
2026-05-05 01:28 -19.17550 -39.86460 6512 ft 174 kts 194°
2026-05-05 01:29 -19.18719 -39.86824 6516 ft 176 kts 194°
2026-05-05 01:29 -19.19895 -39.87190 6513 ft 177 kts 194°
2026-05-05 01:29 -19.21072 -39.87556 6511 ft 176 kts 194°
2026-05-05 01:29 -19.22243 -39.87920 6508 ft 174 kts 194°
2026-05-05 01:30 -19.23405 -39.88282 6514 ft 174 kts 194°
2026-05-05 01:30 -19.24568 -39.88644 6513 ft 174 kts 194°
2026-05-05 01:30 -19.25728 -39.89005 6513 ft 174 kts 194°
2026-05-05 01:30 -19.26886 -39.89366 6508 ft 173 kts 194°
2026-05-05 01:31 -19.28036 -39.89723 6505 ft 172 kts 194°
2026-05-05 01:31 -19.29172 -39.90077 6506 ft 173 kts 195°
2026-05-05 01:31 -19.30324 -39.90438 6504 ft 172 kts 194°
2026-05-05 01:31 -19.31475 -39.90795 6506 ft 173 kts 194°
2026-05-05 01:32 -19.32634 -39.91158 6509 ft 174 kts 194°
2026-05-05 01:32 -19.33798 -39.91521 6511 ft 175 kts 194°
2026-05-05 01:32 -19.34968 -39.91886 6510 ft 175 kts 194°
2026-05-05 01:32 -19.36134 -39.92250 6511 ft 174 kts 195°
2026-05-05 01:33 -19.37282 -39.92609 6508 ft 175 kts 194°
2026-05-05 01:33 -19.38451 -39.92973 6513 ft 175 kts 194°
2026-05-05 01:33 -19.39621 -39.93336 6503 ft 175 kts 194°
2026-05-05 01:33 -19.40784 -39.93701 6503 ft 174 kts 194°
2026-05-05 01:34 -19.41945 -39.94061 6499 ft 174 kts 194°
2026-05-05 01:34 -19.43102 -39.94424 6502 ft 172 kts 195°
2026-05-05 01:34 -19.44245 -39.94781 6502 ft 171 kts 195°
2026-05-05 01:34 -19.45382 -39.95135 6502 ft 169 kts 195°
2026-05-05 01:35 -19.46510 -39.95488 6504 ft 168 kts 195°
2026-05-05 01:35 -19.47622 -39.95836 6507 ft 170 kts 195°
2026-05-05 01:35 -19.48754 -39.96190 6508 ft 170 kts 195°
2026-05-05 01:35 -19.49887 -39.96543 6505 ft 170 kts 195°
2026-05-05 01:36 -19.51019 -39.96895 6505 ft 169 kts 195°
2026-05-05 01:36 -19.52149 -39.97250 6504 ft 170 kts 195°
2026-05-05 01:36 -19.53285 -39.97605 6508 ft 171 kts 194°
2026-05-05 01:36 -19.54422 -39.97960 6505 ft 170 kts 195°
2026-05-05 01:37 -19.55550 -39.98313 6504 ft 169 kts 195°
2026-05-05 01:37 -19.56675 -39.98665 6505 ft 169 kts 195°
2026-05-05 01:37 -19.57803 -39.99019 6506 ft 169 kts 195°
2026-05-05 01:37 -19.58912 -39.99364 6506 ft 168 kts 195°
2026-05-05 01:38 -19.60034 -39.99714 6502 ft 168 kts 195°
2026-05-05 01:38 -19.61156 -40.00066 6501 ft 168 kts 195°
2026-05-05 01:38 -19.62279 -40.00418 6501 ft 169 kts 195°
2026-05-05 01:38 -19.63405 -40.00770 6500 ft 169 kts 195°
2026-05-05 01:39 -19.64531 -40.01123 6498 ft 169 kts 195°
2026-05-05 01:39 -19.65654 -40.01474 6498 ft 168 kts 195°
2026-05-05 01:39 -19.66764 -40.01822 6501 ft 169 kts 195°
2026-05-05 01:39 -19.67887 -40.02174 6499 ft 168 kts 196°
2026-05-05 01:40 -19.69002 -40.02523 6502 ft 166 kts 195°
2026-05-05 01:40 -19.70106 -40.02869 6500 ft 166 kts 195°
2026-05-05 01:40 -19.71214 -40.03217 6500 ft 167 kts 196°
2026-05-05 01:40 -19.72329 -40.03565 6501 ft 168 kts 196°
2026-05-05 01:41 -19.73449 -40.03916 6500 ft 168 kts 196°
2026-05-05 01:41 -19.74571 -40.04268 6501 ft 169 kts 196°
2026-05-05 01:41 -19.75696 -40.04621 6501 ft 169 kts 196°
2026-05-05 01:41 -19.76808 -40.04969 6503 ft 169 kts 196°
2026-05-05 01:42 -19.77940 -40.05324 6499 ft 170 kts 196°
2026-05-05 01:42 -19.79076 -40.05679 6500 ft 171 kts 196°
2026-05-05 01:42 -19.80217 -40.06039 6502 ft 171 kts 196°
2026-05-05 01:42 -19.81360 -40.06397 6502 ft 171 kts 196°
2026-05-05 01:43 -19.82503 -40.06755 6505 ft 171 kts 196°
2026-05-05 01:43 -19.83646 -40.07115 6505 ft 171 kts 196°
2026-05-05 01:43 -19.84789 -40.07473 6506 ft 171 kts 196°
2026-05-05 01:43 -19.85918 -40.07828 6506 ft 172 kts 196°
2026-05-05 01:44 -19.87064 -40.08187 6506 ft 172 kts 196°
2026-05-05 01:44 -19.88147 -40.08712 6499 ft 172 kts 211°
2026-05-05 01:44 -19.89170 -40.09365 6508 ft 172 kts 209°
2026-05-05 01:44 -19.90207 -40.09999 6504 ft 172 kts 209°
2026-05-05 01:45 -19.91241 -40.10636 6503 ft 172 kts 209°
2026-05-05 01:45 -19.92274 -40.11275 6505 ft 172 kts 209°
2026-05-05 01:45 -19.93306 -40.11913 6510 ft 172 kts 209°
2026-05-05 01:45 -19.94326 -40.12546 6446 ft 175 kts 209°
2026-05-05 01:46 -19.95407 -40.13216 6203 ft 184 kts 209°
2026-05-05 01:46 -19.96522 -40.13908 5963 ft 187 kts 208°
2026-05-05 01:46 -19.97643 -40.14605 5720 ft 187 kts 208°
2026-05-05 01:46 -19.98765 -40.15300 5477 ft 187 kts 208°
2026-05-05 01:47 -19.99887 -40.15995 5233 ft 186 kts 207°
2026-05-05 01:47 -20.01008 -40.16688 4983 ft 187 kts 207°
2026-05-05 01:47 -20.02130 -40.17383 4749 ft 186 kts 207°
2026-05-05 01:47 -20.03234 -40.18068 4532 ft 185 kts 207°
2026-05-05 01:48 -20.04315 -40.18735 4520 ft 175 kts 205°
2026-05-05 01:48 -20.05432 -40.19136 4513 ft 167 kts 185°
2026-05-05 01:48 -20.06582 -40.19175 4514 ft 165 kts 177°
2026-05-05 01:48 -20.07741 -40.19187 4514 ft 167 kts 179°
2026-05-05 01:49 -20.08911 -40.19207 4515 ft 169 kts 179°
2026-05-05 01:49 -20.10081 -40.19224 4516 ft 168 kts 178°
2026-05-05 01:49 -20.11255 -40.19240 4516 ft 169 kts 178°
2026-05-05 01:49 -20.12436 -40.19256 4508 ft 170 kts 178°
2026-05-05 01:50 -20.13620 -40.19271 4508 ft 170 kts 178°
2026-05-05 01:50 -20.14789 -40.19287 4511 ft 171 kts 178°
2026-05-05 01:50 -20.15991 -40.19304 4512 ft 174 kts 178°
2026-05-05 01:50 -20.17166 -40.19319 4512 ft 176 kts 179°
2026-05-05 01:51 -20.18389 -40.19338 4510 ft 175 kts 179°
2026-05-05 01:51 -20.19596 -40.19516 4507 ft 179 kts 195°
2026-05-05 01:51 -20.20697 -40.20153 4499 ft 183 kts 214°
2026-05-05 01:51 -20.21703 -40.20984 4503 ft 183 kts 213°
2026-05-05 01:52 -20.22724 -40.21787 4502 ft 182 kts 213°
2026-05-05 01:52 -20.23730 -40.22582 4499 ft 182 kts 213°
2026-05-05 01:52 -20.24739 -40.23386 4500 ft 181 kts 213°
2026-05-05 01:52 -20.25744 -40.24186 4496 ft 180 kts 213°
2026-05-05 01:53 -20.26741 -40.24981 4495 ft 179 kts 213°
2026-05-05 01:53 -20.27738 -40.25774 4496 ft 179 kts 213°
2026-05-05 01:53 -20.28736 -40.26570 4494 ft 179 kts 213°
2026-05-05 01:53 -20.29730 -40.27360 4495 ft 178 kts 213°
2026-05-05 01:54 -20.30709 -40.28140 4492 ft 178 kts 213°
2026-05-05 01:54 -20.31697 -40.28930 4493 ft 178 kts 213°
2026-05-05 01:54 -20.32687 -40.29717 4495 ft 177 kts 213°
2026-05-05 01:54 -20.33680 -40.30506 4496 ft 179 kts 213°
2026-05-05 01:55 -20.34678 -40.31305 4497 ft 180 kts 213°
2026-05-05 01:55 -20.35680 -40.32105 4503 ft 180 kts 213°
2026-05-05 01:55 -20.36685 -40.32907 4496 ft 181 kts 214°
2026-05-05 01:55 -20.37696 -40.33711 4497 ft 181 kts 214°
2026-05-05 01:56 -20.38709 -40.34519 4499 ft 183 kts 214°
2026-05-05 01:56 -20.39715 -40.35324 4503 ft 183 kts 214°
2026-05-05 01:56 -20.40732 -40.36136 4501 ft 183 kts 214°
2026-05-05 01:56 -20.41751 -40.36949 4496 ft 182 kts 214°
2026-05-05 01:57 -20.42763 -40.37758 4491 ft 181 kts 214°
2026-05-05 01:57 -20.43768 -40.38560 4490 ft 180 kts 214°
2026-05-05 01:57 -20.44765 -40.39357 4495 ft 178 kts 214°
2026-05-05 01:57 -20.45756 -40.40147 4499 ft 178 kts 214°
2026-05-05 01:58 -20.46751 -40.40941 4502 ft 179 kts 214°
2026-05-05 01:58 -20.47752 -40.41740 4503 ft 180 kts 214°
2026-05-05 01:58 -20.48076 -40.42000 4499 ft 180 kts 214°